ISS120 LIMC-LGSK

Flight info

Callsign ISS120
Flight time 1h 57m
Altitude 37000
Route OSKOR DCT NEVNI DCT NOBMI DCT ELTAR DCT IDREK DCT ADOSA DCT PETAK DCT PINDO DCT SIGFO
Aircraft A319/M-SDE3FGHIRWY/LB1

Departure

Time 2026-04-14 14:47
Airport Milan Malpensa International Airport (LIMC)

Arrival

Time 2026-04-14 16:44
Airport Skiathos Island National Airport (LGSK)
Time Latitude Longitude Altitude Speed Heading
2026-04-14 14:18 45.61515 8.72251 707 ft 0 kts 112°
2026-04-14 14:33 45.61518 8.72239 707 ft 2 kts 99°
2026-04-14 14:34 45.61514 8.72197 708 ft 2 kts 64°
2026-04-14 14:34 45.61506 8.72179 708 ft 2 kts 45°
2026-04-14 14:34 45.61494 8.72166 707 ft 2 kts 27°
2026-04-14 14:35 45.61480 8.72158 707 ft 2 kts
2026-04-14 14:35 45.61465 8.72158 707 ft 2 kts 351°
2026-04-14 14:35 45.61450 8.72163 706 ft 2 kts 347°
2026-04-14 14:35 45.61445 8.72165 706 ft 0 kts 348°
2026-04-14 14:39 45.61446 8.72164 706 ft 0 kts 348°
2026-04-14 14:39 45.61457 8.72161 706 ft 5 kts 348°
2026-04-14 14:39 45.61496 8.72149 707 ft 6 kts 348°
2026-04-14 14:39 45.61542 8.72136 709 ft 7 kts 348°
2026-04-14 14:40 45.61598 8.72118 710 ft 9 kts 348°
2026-04-14 14:40 45.61665 8.72098 712 ft 10 kts 348°
2026-04-14 14:40 45.61744 8.72077 714 ft 12 kts 351°
2026-04-14 14:40 45.61826 8.72097 716 ft 13 kts 52°
2026-04-14 14:41 45.61874 8.72229 715 ft 16 kts 32°
2026-04-14 14:41 45.61990 8.72212 718 ft 17 kts 346°
2026-04-14 14:41 45.62107 8.72177 721 ft 17 kts 350°
2026-04-14 14:41 45.62234 8.72146 723 ft 18 kts 349°
2026-04-14 14:42 45.62366 8.72109 726 ft 19 kts 349°
2026-04-14 14:42 45.62506 8.72073 729 ft 20 kts 350°
2026-04-14 14:42 45.62649 8.72032 732 ft 21 kts 347°
2026-04-14 14:42 45.62796 8.71983 734 ft 22 kts 348°
2026-04-14 14:43 45.62947 8.71961 737 ft 22 kts 16°
2026-04-14 14:43 45.63101 8.72003 739 ft 22 kts
2026-04-14 14:43 45.63255 8.71974 743 ft 22 kts 347°
2026-04-14 14:43 45.63412 8.71925 745 ft 23 kts 347°
2026-04-14 14:44 45.63572 8.71881 749 ft 23 kts 350°
2026-04-14 14:44 45.63729 8.71839 753 ft 23 kts 349°
2026-04-14 14:44 45.63887 8.71798 757 ft 23 kts 349°
2026-04-14 14:44 45.64043 8.71756 761 ft 22 kts 350°
2026-04-14 14:45 45.64200 8.71716 766 ft 22 kts 350°
2026-04-14 14:45 45.64356 8.71672 769 ft 23 kts 348°
2026-04-14 14:45 45.64478 8.71759 769 ft 22 kts 72°
2026-04-14 14:45 45.64415 8.71882 767 ft 14 kts 167°
2026-04-14 14:46 45.64341 8.71927 766 ft 0 kts 165°
2026-04-14 14:46 45.64200 8.71972 763 ft 54 kts 171°
2026-04-14 14:46 45.63590 8.72140 749 ft 123 kts 170°
2026-04-14 14:46 45.62568 8.72425 834 ft 168 kts 170°
2026-04-14 14:47 45.61391 8.72660 1401 ft 173 kts 181°
2026-04-14 14:47 45.60186 8.72429 1980 ft 185 kts 191°
2026-04-14 14:47 45.58814 8.72089 2320 ft 213 kts 188°
2026-04-14 14:47 45.57236 8.71833 2575 ft 236 kts 184°
2026-04-14 14:48 45.55554 8.71675 3181 ft 248 kts 181°
2026-04-14 14:48 45.53859 8.71571 4149 ft 247 kts 180°
2026-04-14 14:48 45.52155 8.71857 4993 ft 249 kts 155°
2026-04-14 14:48 45.50809 8.73346 5800 ft 249 kts 123°
2026-04-14 14:49 45.50183 8.75621 6587 ft 250 kts 92°
2026-04-14 14:49 45.50458 8.78014 7404 ft 249 kts 63°
2026-04-14 14:49 45.51333 8.80117 8261 ft 250 kts 57°
2026-04-14 14:49 45.52241 8.82225 9099 ft 253 kts 58°
2026-04-14 14:50 45.53145 8.84375 9927 ft 255 kts 58°
2026-04-14 14:50 45.54051 8.86552 10718 ft 258 kts 59°
2026-04-14 14:50 45.54962 8.88750 11488 ft 262 kts 59°
2026-04-14 14:50 45.55893 8.91000 12246 ft 265 kts 57°
2026-04-14 14:51 45.56966 8.93105 12971 ft 267 kts 48°
2026-04-14 14:51 45.58321 8.94993 13530 ft 277 kts 40°
2026-04-14 14:51 45.59842 8.96769 13873 ft 294 kts 38°
2026-04-14 14:51 45.61498 8.98649 14192 ft 312 kts 38°
2026-04-14 14:52 45.63173 9.00715 14480 ft 329 kts 48°
2026-04-14 14:52 45.64351 9.03631 14760 ft 347 kts 71°
2026-04-14 14:52 45.64697 9.07108 15045 ft 364 kts 88°
2026-04-14 14:52 45.64695 9.10814 15372 ft 378 kts 89°
2026-04-14 14:53 45.64694 9.14602 15928 ft 384 kts 89°
2026-04-14 14:53 45.64699 9.18430 16563 ft 387 kts 89°
2026-04-14 14:53 45.64710 9.22242 17150 ft 390 kts 89°
2026-04-14 14:53 45.64722 9.26131 17735 ft 393 kts 89°
2026-04-14 14:54 45.64737 9.30085 18305 ft 397 kts 89°
2026-04-14 14:54 45.64753 9.34051 18847 ft 400 kts 89°
2026-04-14 14:54 45.64767 9.38030 19393 ft 403 kts 89°
2026-04-14 14:54 45.64781 9.42042 19930 ft 405 kts 89°
2026-04-14 14:55 45.64793 9.46073 20441 ft 408 kts 89°
2026-04-14 14:55 45.64805 9.50121 20951 ft 410 kts 89°
2026-04-14 14:55 45.64814 9.54163 21450 ft 413 kts 89°
2026-04-14 14:55 45.64822 9.58313 21915 ft 416 kts 89°
2026-04-14 14:56 45.64838 9.66598 22814 ft 422 kts 90°
2026-04-14 14:57 45.64876 9.79250 24128 ft 429 kts 90°
2026-04-14 14:57 45.64886 9.83530 24565 ft 431 kts 90°
2026-04-14 14:57 45.64894 9.87877 24987 ft 434 kts 90°
2026-04-14 14:57 45.64900 9.92191 25399 ft 436 kts 90°
2026-04-14 14:58 45.64905 9.96515 25784 ft 438 kts 90°
2026-04-14 14:58 45.64908 10.00927 26179 ft 440 kts 90°
2026-04-14 14:58 45.64909 10.05296 26548 ft 442 kts 90°
2026-04-14 14:58 45.64909 10.09674 26917 ft 444 kts 90°
2026-04-14 14:59 45.64905 10.14089 27276 ft 446 kts 91°
2026-04-14 14:59 45.64898 10.18505 27606 ft 448 kts 91°
2026-04-14 14:59 45.64887 10.22963 27977 ft 449 kts 91°
2026-04-14 14:59 45.64876 10.27419 28450 ft 447 kts 91°
2026-04-14 15:00 45.64863 10.31897 28929 ft 445 kts 91°
2026-04-14 15:00 45.64848 10.36283 29392 ft 443 kts 91°
2026-04-14 15:00 45.64831 10.40651 29859 ft 441 kts 91°
2026-04-14 15:00 45.64816 10.45053 30342 ft 439 kts 91°
2026-04-14 15:01 45.64800 10.49404 30788 ft 438 kts 91°
2026-04-14 15:01 45.64785 10.53747 31177 ft 436 kts 91°
2026-04-14 15:01 45.64766 10.58080 31549 ft 436 kts 91°
2026-04-14 15:01 45.64744 10.62365 31865 ft 436 kts 91°
2026-04-14 15:02 45.64717 10.66750 32175 ft 437 kts 92°
2026-04-14 15:02 45.64688 10.71082 32473 ft 437 kts 92°
2026-04-14 15:02 45.64656 10.75402 32749 ft 438 kts 92°
2026-04-14 15:02 45.64621 10.79763 33028 ft 439 kts 92°
2026-04-14 15:03 45.64587 10.84102 33309 ft 439 kts 92°
2026-04-14 15:03 45.64554 10.88492 33571 ft 440 kts 92°
2026-04-14 15:03 45.64413 10.92824 33808 ft 441 kts 96°
2026-04-14 15:03 45.64019 10.97165 34068 ft 440 kts 101°
2026-04-14 15:04 45.63372 11.01446 34325 ft 440 kts 106°
2026-04-14 15:04 45.62487 11.05599 34569 ft 439 kts 111°
2026-04-14 15:04 45.61362 11.09642 34805 ft 439 kts 115°
2026-04-14 15:04 45.60003 11.13549 34985 ft 439 kts 120°
2026-04-14 15:05 45.58485 11.17349 35143 ft 439 kts 121°
2026-04-14 15:05 45.56952 11.21114 35286 ft 440 kts 121°
2026-04-14 15:05 45.55411 11.24889 35399 ft 441 kts 122°
2026-04-14 15:05 45.53868 11.28667 35507 ft 442 kts 121°
2026-04-14 15:06 45.52321 11.32456 35617 ft 443 kts 121°
2026-04-14 15:06 45.50769 11.36258 35718 ft 444 kts 121°
2026-04-14 15:06 45.49215 11.40066 35819 ft 445 kts 121°
2026-04-14 15:06 45.47673 11.43838 35917 ft 446 kts 121°
2026-04-14 15:07 45.44537 11.51498 36107 ft 447 kts 121°
2026-04-14 15:07 45.42960 11.55343 36219 ft 448 kts 121°
2026-04-14 15:07 45.41407 11.59125 36331 ft 449 kts 121°
2026-04-14 15:08 45.39821 11.62982 36457 ft 450 kts 121°
2026-04-14 15:08 45.38243 11.66817 36586 ft 451 kts 122°
2026-04-14 15:08 45.36646 11.70691 36703 ft 452 kts 122°
2026-04-14 15:08 45.35058 11.74537 36813 ft 453 kts 122°
2026-04-14 15:09 45.33448 11.78430 36923 ft 453 kts 122°
2026-04-14 15:09 45.31856 11.82276 36989 ft 454 kts 122°
2026-04-14 15:09 45.28654 11.89995 36995 ft 453 kts 122°
2026-04-14 15:10 45.25455 11.97687 37000 ft 453 kts 122°
2026-04-14 15:10 45.22251 12.05372 37000 ft 453 kts 122°
2026-04-14 15:11 45.19025 12.13082 36997 ft 453 kts 122°
2026-04-14 15:11 45.15814 12.20739 37005 ft 453 kts 122°
2026-04-14 15:12 45.12606 12.28366 36989 ft 453 kts 122°
2026-04-14 15:12 45.09370 12.36038 37003 ft 453 kts 122°
2026-04-14 15:13 45.06149 12.43658 36994 ft 452 kts 122°
2026-04-14 15:13 45.02913 12.51290 36990 ft 452 kts 122°
2026-04-14 15:14 44.99695 12.58859 36991 ft 452 kts 122°
2026-04-14 15:14 44.96453 12.66464 36994 ft 452 kts 123°
2026-04-14 15:15 44.93205 12.74063 36998 ft 452 kts 123°
2026-04-14 15:15 44.89995 12.81555 36996 ft 452 kts 123°
2026-04-14 15:16 44.86727 12.89162 36989 ft 451 kts 123°
2026-04-14 15:16 44.83472 12.96716 36991 ft 451 kts 123°
2026-04-14 15:17 44.80221 13.04240 36981 ft 450 kts 123°
2026-04-14 15:17 44.76969 13.11745 36976 ft 450 kts 123°
2026-04-14 15:18 44.73717 13.19235 36981 ft 450 kts 123°
2026-04-14 15:18 44.70454 13.26728 36977 ft 450 kts 123°
2026-04-14 15:19 44.67170 13.34250 36982 ft 450 kts 123°
2026-04-14 15:19 44.63893 13.41740 36976 ft 450 kts 123°
2026-04-14 15:20 44.60627 13.49181 36963 ft 449 kts 123°
2026-04-14 15:20 44.57349 13.56630 36976 ft 449 kts 123°
2026-04-14 15:21 44.54061 13.64082 36966 ft 449 kts 123°
2026-04-14 15:21 44.50778 13.71504 36971 ft 449 kts 124°
2026-04-14 15:22 44.47493 13.78912 36980 ft 449 kts 124°
2026-04-14 15:22 44.44192 13.86340 36979 ft 449 kts 124°
2026-04-14 15:23 44.40911 13.93700 36979 ft 449 kts 124°
2026-04-14 15:23 44.37604 14.01100 36970 ft 448 kts 124°
2026-04-14 15:24 44.34312 14.08445 36975 ft 448 kts 124°
2026-04-14 15:24 44.31008 14.15800 36985 ft 448 kts 124°
2026-04-14 15:25 44.27680 14.23190 36985 ft 448 kts 124°
2026-04-14 15:25 44.24379 14.30501 36975 ft 449 kts 124°
2026-04-14 15:26 44.21043 14.37872 36967 ft 449 kts 124°
2026-04-14 15:26 44.17717 14.45201 36974 ft 449 kts 124°
2026-04-14 15:27 44.14388 14.52521 36946 ft 449 kts 124°
2026-04-14 15:27 44.11037 14.59868 36950 ft 448 kts 124°
2026-04-14 15:28 44.07683 14.67203 36935 ft 448 kts 125°
2026-04-14 15:28 44.04346 14.74479 36938 ft 448 kts 125°
2026-04-14 15:29 44.00981 14.81801 36936 ft 449 kts 125°
2026-04-14 15:29 43.97610 14.89115 36948 ft 450 kts 125°
2026-04-14 15:30 43.94255 14.96382 36949 ft 450 kts 125°
2026-04-14 15:30 43.90874 15.03685 36954 ft 449 kts 125°
2026-04-14 15:31 43.87487 15.10982 36964 ft 450 kts 125°
2026-04-14 15:31 43.84120 15.18217 36967 ft 450 kts 125°
2026-04-14 15:32 43.80733 15.25479 36955 ft 449 kts 125°
2026-04-14 15:32 43.77341 15.32729 36971 ft 450 kts 125°
2026-04-14 15:33 43.73933 15.39997 36956 ft 450 kts 125°
2026-04-14 15:33 43.70517 15.47266 36959 ft 451 kts 125°
2026-04-14 15:34 43.67111 15.54493 36940 ft 451 kts 125°
2026-04-14 15:34 43.63681 15.61753 36947 ft 451 kts 125°
2026-04-14 15:35 43.60239 15.69023 36935 ft 451 kts 126°
2026-04-14 15:35 43.56798 15.76271 36938 ft 451 kts 126°
2026-04-14 15:36 43.53365 15.83488 36947 ft 451 kts 126°
2026-04-14 15:36 43.49925 15.90699 36952 ft 452 kts 126°
2026-04-14 15:37 43.46478 15.97904 36949 ft 452 kts 126°
2026-04-14 15:37 43.43005 16.05151 36958 ft 452 kts 126°
2026-04-14 15:38 43.39546 16.12352 36948 ft 452 kts 126°
2026-04-14 15:38 43.36079 16.19552 36953 ft 452 kts 126°
2026-04-14 15:39 43.32597 16.26761 36960 ft 452 kts 126°
2026-04-14 15:39 43.29121 16.33941 36962 ft 452 kts 126°
2026-04-14 15:40 43.25641 16.41114 36966 ft 452 kts 126°
2026-04-14 15:40 43.22144 16.48302 36959 ft 453 kts 126°
2026-04-14 15:41 43.18656 16.55453 36961 ft 452 kts 126°
2026-04-14 15:41 43.15164 16.62598 36960 ft 453 kts 126°
2026-04-14 15:42 43.11635 16.69802 36967 ft 453 kts 127°
2026-04-14 15:42 43.08128 16.76944 36963 ft 453 kts 127°
2026-04-14 15:43 43.04591 16.84128 36965 ft 453 kts 127°
2026-04-14 15:43 43.01075 16.91252 36958 ft 453 kts 127°
2026-04-14 15:44 42.97557 16.98362 36977 ft 453 kts 127°
2026-04-14 15:44 42.94038 17.05457 36977 ft 453 kts 127°
2026-04-14 15:45 42.90497 17.12581 36984 ft 453 kts 127°
2026-04-14 15:45 42.86947 17.19706 36981 ft 454 kts 127°
2026-04-14 15:46 42.83393 17.26819 36984 ft 455 kts 127°
2026-04-14 15:46 42.79847 17.33904 36979 ft 455 kts 127°
2026-04-14 15:47 42.76262 17.41046 36971 ft 455 kts 127°
2026-04-14 15:47 42.72697 17.48131 36972 ft 455 kts 127°
2026-04-14 15:48 42.69125 17.55211 36973 ft 455 kts 127°
2026-04-14 15:48 42.65546 17.62290 36975 ft 455 kts 127°
2026-04-14 15:49 42.61959 17.69373 36975 ft 455 kts 128°
2026-04-14 15:49 42.58356 17.76465 36975 ft 456 kts 128°
2026-04-14 15:50 42.54752 17.83542 36985 ft 456 kts 128°
2026-04-14 15:50 42.51148 17.90605 36982 ft 456 kts 128°
2026-04-14 15:51 42.47546 17.97647 36982 ft 456 kts 128°
2026-04-14 15:51 42.43929 18.04703 36987 ft 456 kts 128°
2026-04-14 15:52 42.40334 18.11698 36983 ft 457 kts 128°
2026-04-14 15:52 42.36687 18.18778 36972 ft 457 kts 128°
2026-04-14 15:53 42.33073 18.25777 36983 ft 457 kts 128°
2026-04-14 15:53 42.29427 18.32820 36988 ft 458 kts 128°
2026-04-14 15:54 42.23956 18.43354 36984 ft 458 kts 128°
2026-04-14 15:55 42.20307 18.50360 36984 ft 458 kts 128°
2026-04-14 15:55 42.16647 18.57375 36983 ft 458 kts 128°
2026-04-14 15:56 42.12970 18.64406 36985 ft 457 kts 128°
2026-04-14 15:56 42.09301 18.71406 36981 ft 458 kts 129°
2026-04-14 15:57 42.05611 18.78428 36981 ft 458 kts 129°
2026-04-14 15:57 42.01952 18.85381 36980 ft 459 kts 129°
2026-04-14 15:58 41.98247 18.92403 36976 ft 459 kts 129°
2026-04-14 15:58 41.94557 18.99374 36990 ft 458 kts 129°
2026-04-14 15:59 41.90862 19.06342 36999 ft 458 kts 129°
2026-04-14 15:59 41.87176 19.13284 36986 ft 458 kts 129°
2026-04-14 16:00 41.83463 19.20256 36968 ft 458 kts 129°
2026-04-14 16:00 41.79746 19.27195 36968 ft 459 kts 130°
2026-04-14 16:01 41.75684 19.33685 36970 ft 455 kts 137°
2026-04-14 16:01 41.71179 19.39641 36972 ft 454 kts 140°
2026-04-14 16:02 41.66664 19.45495 36976 ft 454 kts 140°
2026-04-14 16:02 41.62115 19.51392 36985 ft 454 kts 140°
2026-04-14 16:03 41.57592 19.57246 36985 ft 455 kts 140°
2026-04-14 16:03 41.53029 19.63143 36987 ft 455 kts 140°
2026-04-14 16:04 41.48454 19.69044 36986 ft 455 kts 141°
2026-04-14 16:04 41.43909 19.74897 36992 ft 455 kts 141°
2026-04-14 16:05 41.39330 19.80778 37005 ft 456 kts 141°
2026-04-14 16:05 41.34794 19.86592 37014 ft 455 kts 141°
2026-04-14 16:06 41.30197 19.92473 37022 ft 457 kts 141°
2026-04-14 16:06 41.25623 19.98312 37030 ft 457 kts 141°
2026-04-14 16:07 41.21046 20.04146 37031 ft 457 kts 141°
2026-04-14 16:07 41.16461 20.09978 37029 ft 458 kts 141°
2026-04-14 16:08 41.11848 20.15829 37040 ft 458 kts 141°
2026-04-14 16:08 41.07257 20.21642 37047 ft 457 kts 141°
2026-04-14 16:09 41.02653 20.27463 37061 ft 457 kts 141°
2026-04-14 16:09 40.98059 20.33256 37067 ft 457 kts 141°
2026-04-14 16:10 40.93433 20.39081 37075 ft 458 kts 141°
2026-04-14 16:10 40.88825 20.44871 37073 ft 458 kts 141°
2026-04-14 16:11 40.84184 20.50690 37083 ft 457 kts 141°
2026-04-14 16:11 40.79579 20.56453 37088 ft 457 kts 142°
2026-04-14 16:12 40.74936 20.62248 37091 ft 458 kts 142°
2026-04-14 16:12 40.70305 20.68024 37090 ft 457 kts 143°
2026-04-14 16:13 40.65683 20.73772 37099 ft 457 kts 142°
2026-04-14 16:13 40.61052 20.79520 37104 ft 457 kts 142°
2026-04-14 16:14 40.56428 20.85257 37119 ft 458 kts 143°
2026-04-14 16:14 40.51782 20.91001 37125 ft 457 kts 142°
2026-04-14 16:15 40.47377 20.97130 37127 ft 464 kts 136°
2026-04-14 16:15 40.43466 21.03896 37129 ft 467 kts 131°
2026-04-14 16:16 40.39676 21.10833 37147 ft 467 kts 131°
2026-04-14 16:16 40.35880 21.17758 37135 ft 467 kts 131°
2026-04-14 16:17 40.32078 21.24662 37138 ft 466 kts 132°
2026-04-14 16:17 40.28280 21.31546 37134 ft 466 kts 132°
2026-04-14 16:18 40.24477 21.38415 37042 ft 468 kts 132°
2026-04-14 16:18 40.22655 21.41938 36750 ft 470 kts 128°
2026-04-14 16:18 40.20947 21.45607 36482 ft 469 kts 127°
2026-04-14 16:18 40.19284 21.49282 36246 ft 464 kts 127°
2026-04-14 16:19 40.17676 21.52846 35910 ft 457 kts 127°
2026-04-14 16:19 40.16046 21.56424 35497 ft 453 kts 128°
2026-04-14 16:19 40.14437 21.59939 35079 ft 449 kts 128°
2026-04-14 16:19 40.12839 21.63404 34666 ft 446 kts 128°
2026-04-14 16:20 40.11245 21.66849 34175 ft 442 kts 129°
2026-04-14 16:20 40.09650 21.70293 33663 ft 438 kts 129°
2026-04-14 16:20 40.08073 21.73686 33156 ft 434 kts 129°
2026-04-14 16:20 40.06520 21.77019 32658 ft 430 kts 129°
2026-04-14 16:21 40.04966 21.80351 32157 ft 426 kts 129°
2026-04-14 16:21 40.03430 21.83646 31661 ft 423 kts 129°
2026-04-14 16:21 40.01922 21.86876 31171 ft 420 kts 128°
2026-04-14 16:21 40.00397 21.90137 30671 ft 416 kts 128°
2026-04-14 16:22 39.98901 21.93342 30179 ft 413 kts 128°
2026-04-14 16:22 39.97420 21.96500 29698 ft 411 kts 128°
2026-04-14 16:22 39.95932 21.99671 29199 ft 408 kts 128°
2026-04-14 16:22 39.94448 22.02838 28716 ft 405 kts 128°
2026-04-14 16:23 39.92982 22.05962 28228 ft 403 kts 128°
2026-04-14 16:23 39.91518 22.09082 27737 ft 400 kts 127°
2026-04-14 16:23 39.90078 22.12139 27264 ft 398 kts 127°
2026-04-14 16:23 39.88635 22.15200 26791 ft 396 kts 127°
2026-04-14 16:24 39.87185 22.18277 26307 ft 394 kts 127°
2026-04-14 16:24 39.85741 22.21332 25831 ft 392 kts 127°
2026-04-14 16:24 39.84317 22.24344 25356 ft 390 kts 126°
2026-04-14 16:24 39.82893 22.27354 24882 ft 388 kts 126°
2026-04-14 16:25 39.81493 22.30316 24413 ft 386 kts 126°
2026-04-14 16:25 39.80076 22.33305 23942 ft 384 kts 125°
2026-04-14 16:25 39.78693 22.36220 23483 ft 383 kts 125°
2026-04-14 16:25 39.77297 22.39158 23031 ft 381 kts 124°
2026-04-14 16:26 39.75908 22.42088 22577 ft 379 kts 125°
2026-04-14 16:26 39.74519 22.45012 22124 ft 378 kts 124°
2026-04-14 16:26 39.73147 22.47901 21667 ft 376 kts 124°
2026-04-14 16:26 39.71784 22.50765 21229 ft 374 kts 124°
2026-04-14 16:27 39.70412 22.53642 20779 ft 373 kts 124°
2026-04-14 16:27 39.69044 22.56509 20330 ft 371 kts 124°
2026-04-14 16:27 39.67706 22.59313 19896 ft 369 kts 124°
2026-04-14 16:27 39.66348 22.62151 19449 ft 367 kts 124°
2026-04-14 16:28 39.65003 22.64961 19016 ft 366 kts 124°
2026-04-14 16:28 39.63658 22.67770 18559 ft 364 kts 124°
2026-04-14 16:28 39.62333 22.70530 18124 ft 362 kts 124°
2026-04-14 16:28 39.61007 22.73299 17680 ft 360 kts 124°
2026-04-14 16:29 39.59687 22.76050 17236 ft 358 kts 124°
2026-04-14 16:29 39.58377 22.78780 16799 ft 356 kts 124°
2026-04-14 16:29 39.57079 22.81479 16365 ft 354 kts 124°
2026-04-14 16:29 39.55780 22.84179 15918 ft 353 kts 124°
2026-04-14 16:30 39.54474 22.86890 15479 ft 351 kts 124°
2026-04-14 16:30 39.53184 22.89569 15039 ft 349 kts 124°
2026-04-14 16:30 39.51894 22.92239 14591 ft 348 kts 124°
2026-04-14 16:30 39.50625 22.94866 14144 ft 346 kts 124°
2026-04-14 16:31 39.49349 22.97506 13689 ft 343 kts 124°
2026-04-14 16:31 39.48089 23.00116 13240 ft 341 kts 124°
2026-04-14 16:31 39.46832 23.02712 12804 ft 339 kts 124°
2026-04-14 16:31 39.45603 23.05252 12365 ft 336 kts 125°
2026-04-14 16:32 39.44368 23.07801 11921 ft 334 kts 125°
2026-04-14 16:32 39.43126 23.10361 11465 ft 332 kts 125°
2026-04-14 16:32 39.41915 23.12854 11023 ft 329 kts 125°
2026-04-14 16:32 39.40700 23.15356 10573 ft 327 kts 125°
2026-04-14 16:33 39.39501 23.17823 10203 ft 321 kts 126°
2026-04-14 16:33 39.38332 23.20225 10149 ft 306 kts 126°
2026-04-14 16:33 39.37236 23.22479 10149 ft 290 kts 126°
2026-04-14 16:33 39.36184 23.24641 10140 ft 274 kts 126°
2026-04-14 16:34 39.35197 23.26672 10103 ft 261 kts 126°
2026-04-14 16:34 39.34234 23.28644 9875 ft 257 kts 126°
2026-04-14 16:34 39.33292 23.30566 9636 ft 253 kts 126°
2026-04-14 16:34 39.32354 23.32483 9403 ft 249 kts 126°
2026-04-14 16:35 39.31439 23.34352 9174 ft 245 kts 126°
2026-04-14 16:35 39.30532 23.36208 8936 ft 241 kts 126°
2026-04-14 16:35 39.29641 23.38025 8697 ft 238 kts 126°
2026-04-14 16:35 39.28759 23.39821 8446 ft 235 kts 126°
2026-04-14 16:36 39.27885 23.41604 8182 ft 234 kts 126°
2026-04-14 16:36 39.27017 23.43373 7908 ft 233 kts 125°
2026-04-14 16:36 39.26145 23.45144 7484 ft 240 kts 125°
2026-04-14 16:36 39.25228 23.47010 7011 ft 247 kts 124°
2026-04-14 16:37 39.24298 23.48902 6545 ft 254 kts 124°
2026-04-14 16:37 39.23340 23.50851 6074 ft 259 kts 124°
2026-04-14 16:37 39.22368 23.52825 5607 ft 264 kts 123°
2026-04-14 16:37 39.21376 23.54842 5135 ft 268 kts 123°
2026-04-14 16:38 39.20372 23.56881 4663 ft 271 kts 123°
2026-04-14 16:38 39.19261 23.58824 4193 ft 272 kts 139°
2026-04-14 16:38 39.17595 23.59808 3981 ft 261 kts 175°
2026-04-14 16:38 39.15884 23.59333 3973 ft 246 kts 212°
2026-04-14 16:39 39.14807 23.57750 3978 ft 231 kts 242°
2026-04-14 16:39 39.14148 23.55935 3978 ft 217 kts 242°
2026-04-14 16:39 39.13440 23.54221 3903 ft 213 kts 238°
2026-04-14 16:39 39.12660 23.52628 3722 ft 208 kts 234°
2026-04-14 16:40 39.11848 23.51130 3535 ft 199 kts 233°
2026-04-14 16:40 39.11047 23.49719 3282 ft 194 kts 232°
2026-04-14 16:40 39.10241 23.48330 3025 ft 190 kts 231°
2026-04-14 16:40 39.09521 23.46923 2760 ft 187 kts 248°
2026-04-14 16:41 39.09486 23.45307 2516 ft 180 kts 289°
2026-04-14 16:41 39.10220 23.44096 2263 ft 168 kts 329°
2026-04-14 16:41 39.11285 23.43733 2000 ft 154 kts
2026-04-14 16:41 39.12245 23.44168 1722 ft 144 kts 38°
2026-04-14 16:42 39.12957 23.44999 1582 ft 130 kts 49°
2026-04-14 16:42 39.13418 23.45977 1385 ft 129 kts 71°
2026-04-14 16:42 39.13660 23.47108 1029 ft 131 kts 72°
2026-04-14 16:42 39.14058 23.48128 776 ft 126 kts 52°
2026-04-14 16:43 39.14745 23.48861 604 ft 128 kts 34°
2026-04-14 16:43 39.15538 23.49362 317 ft 127 kts 22°
2026-04-14 16:43 39.16370 23.49727 202 ft 127 kts 22°
2026-04-14 16:43 39.17195 23.50127 15 ft 122 kts 23°
2026-04-14 16:44 39.17782 23.50399 53 ft 55 kts 17°
2026-04-14 16:44 39.17910 23.50422 62 ft 7 kts 324°
2026-04-14 16:44 39.17919 23.50376 63 ft 5 kts 252°
2026-04-14 16:45 39.17858 23.50310 60 ft 4 kts 200°
2026-04-14 16:45 39.17806 23.50287 56 ft 9 kts 207°
2026-04-14 16:45 39.17791 23.50245 54 ft 5 kts 266°
2026-04-14 16:45 39.17791 23.50236 55 ft 0 kts 271°
2026-04-14 16:46 39.17791 23.50234 55 ft 0 kts 283°
2026-04-14 16:46 39.17793 23.50223 55 ft 1 kts 284°
2026-04-14 16:46 39.17798 23.50200 56 ft 2 kts 290°
2026-04-14 16:46 39.17801 23.50190 56 ft 0 kts 292°